| time (UTC) | temp F | wind direction | speed knots | gust knots | rain 1hr in | rain 24hr in | rain mn in | humidity % | barometer mb |
| 20260905154754 | 80 | 156 | 1.7 | 4.3 | 0.00 | 0.00 | 0.00 | 79 | 1014.3 |
| 20260905154251 | 80 | 177 | 1.7 | 4.3 | 0.00 | 0.00 | 0.00 | 78 | 1013.7 |
| 20260905153746 | 80 | 176 | 2.6 | 2.6 | 0.00 | 0.00 | 0.00 | 79 | 1013.6 |
| 20260905153242 | 81 | 286 | 1.7 | 1.7 | 0.00 | 0.00 | 0.00 | 77 | 1013.8 |
| 20260905152736 | 82 | 123 | 0.0 | 0.9 | 0.00 | 0.00 | 0.00 | 76 | 1013.8 |
| 20260905152231 | 82 | 219 | 0.0 | 2.6 | 0.00 | 0.00 | 0.00 | 74 | 1013.9 |
| 20260905151730 | 81 | 261 | 2.6 | 4.3 | 0.00 | 0.00 | 0.00 | 74 | 1013.9 |
| 20260905151227 | 81 | 166 | 1.7 | 2.6 | 0.00 | 0.00 | 0.00 | 75 | 1014.1 |
| 20260905150726 | 81 | 292 | 0.0 | 4.3 | 0.00 | 0.00 | 0.00 | 74 | 1014.0 |
| 20260905150226 | 81 | 271 | 1.7 | 3.5 | 0.00 | 0.00 | 0.00 | 74 | 1013.9 |
| 20260905145723 | 82 | 249 | 2.6 | 2.6 | 0.00 | 0.00 | 0.00 | 74 | 1014.1 |
| 20260905145218 | 82 | 165 | 0.9 | 5.2 | 0.00 | 0.00 | 0.00 | 75 | 1014.2 |
| 20260905144717 | 82 | 184 | 0.0 | 3.5 | 0.00 | 0.00 | 0.00 | 76 | 1014.1 |
| 20260905144212 | 82 | 184 | 0.0 | 3.5 | 0.00 | 0.00 | 0.00 | 76 | 1014.1 |
| 20260905143711 | 82 | 207 | 2.6 | 6.1 | 0.00 | 0.00 | 0.00 | 73 | 1014.0 |
| 20260905143206 | 82 | 242 | 2.6 | 3.5 | 0.00 | 0.00 | 0.00 | 74 | 1013.8 |
| 20260905142704 | 83 | 203 | 0.0 | 3.5 | 0.00 | 0.00 | 0.00 | 73 | 1013.9 |
| 20260905142159 | 83 | 119 | 1.7 | 2.6 | 0.00 | 0.00 | 0.00 | 77 | 1013.8 |
| 20260905141654 | 83 | 128 | 1.7 | 1.7 | 0.00 | 0.00 | 0.00 | 76 | 1014.0 |
| 20260905141150 | 83 | 236 | 1.7 | 1.7 | 0.00 | 0.00 | 0.00 | 73 | 1013.9 |
| 20260905140645 | 83 | 161 | 0.0 | 1.7 | 0.00 | 0.00 | 0.00 | 74 | 1013.7 |
| 20260905140139 | 82 | 222 | 0.9 | 1.7 | 0.00 | 0.00 | 0.00 | 76 | 1013.8 |
| 20260905135634 | 81 | 237 | 0.9 | 2.6 | 0.00 | 0.00 | 0.00 | 77 | 1013.5 |
| 20260905135130 | 80 | 273 | 1.7 | 2.6 | 0.00 | 0.00 | 0.00 | 81 | 1013.7 |
| 20260905134624 | 78 | 126 | 2.6 | 2.6 | 0.00 | 0.00 | 0.00 | 84 | 1013.8 |
| 20260905134123 | 77 | 98 | 0.9 | 1.7 | 0.00 | 0.00 | 0.00 | 89 | 1013.7 |
| 20260905133619 | 76 | 223 | 2.6 | 3.5 | 0.00 | 0.00 | 0.00 | 98 | 1013.7 |
| 20260905133118 | 75 | 210 | 0.9 | 4.3 | 0.00 | 0.00 | 0.00 | 99 | 1013.2 |
| 20260905132618 | 75 | 220 | 1.7 | 3.5 | 0.00 | 0.00 | 0.00 | 99 | 1013.5 |
| 20260905132113 | 74 | 147 | 0.0 | 1.7 | 0.00 | 0.00 | 0.00 | 99 | 1013.5 |
| 20260905131608 | 74 | 147 | 0.0 | 0.9 | 0.00 | 0.00 | 0.00 | 99 | 1013.6 |
| 20260905131103 | 74 | 232 | 0.0 | 0.0 | 0.00 | 0.00 | 0.00 | 99 | 1013.4 |
| 20260905130603 | 73 | 184 | 0.0 | 0.9 | 0.00 | 0.00 | 0.00 | 99 | 1013.5 |
| 20260905130058 | 73 | 222 | 0.0 | 1.7 | 0.00 | 0.00 | 0.00 | 99 | 1013.4 |
| 20260905125557 | 73 | 194 | 0.0 | 0.9 | 0.00 | 0.00 | 0.00 | 99 | 1013.0 |
| 20260905125053 | 73 | 138 | 0.9 | 1.7 | 0.00 | 0.00 | 0.00 | 99 | 1013.2 |
| 20260905124549 | 73 | 175 | 0.0 | 0.0 | 0.00 | 0.00 | 0.00 | 99 | 1013.3 |
| 20260905124045 | 73 | 172 | 0.0 | 0.9 | 0.00 | 0.00 | 0.00 | 99 | 1013.5 |
| 20260905123540 | 72 | 147 | 0.0 | 0.0 | 0.00 | 0.00 | 0.00 | 99 | 1013.3 |
| 20260905123037 | 72 | 171 | 0.0 | 0.9 | 0.00 | 0.00 | 0.00 | 99 | 1013.4 |
| 20260905122536 | 72 | 136 | 0.0 | 0.9 | 0.00 | 0.00 | 0.00 | 99 | 1013.5 |
| 20260905122031 | 72 | 146 | 0.0 | 1.7 | 0.00 | 0.00 | 0.00 | 99 | 1013.7 |
| 20260905121526 | 71 | 149 | 0.9 | 1.7 | 0.00 | 0.00 | 0.00 | 99 | 1013.7 |
| 20260905121021 | 71 | 172 | 0.0 | 0.9 | 0.00 | 0.00 | 0.00 | 99 | 1013.5 |
| 20260905120521 | 70 | 134 | 0.0 | 0.9 | 0.00 | 0.00 | 0.00 | 99 | 1013.5 |
| 20260905120016 | 70 | 160 | 0.0 | 0.9 | 0.00 | 0.00 | 0.00 | 99 | 1013.6 |
| 20260905115515 | 70 | 137 | 0.0 | 0.9 | 0.00 | 0.00 | 0.00 | 99 | 1013.4 |
| 20260905115010 | 70 | 196 | 0.0 | 0.9 | 0.00 | 0.00 | 0.00 | 99 | 1013.2 |
| 20260905114509 | 70 | 178 | 0.9 | 1.7 | 0.00 | 0.00 | 0.00 | 99 | 1013.3 |
| 20260905114008 | 69 | 160 | 0.9 | 1.7 | 0.00 | 0.00 | 0.00 | 99 | 1013.2 |
| 20260905113504 | 69 | 144 | 0.9 | 1.7 | 0.00 | 0.00 | 0.00 | 99 | 1013.2 |
| 20260905112959 | 69 | 128 | 0.0 | 1.7 | 0.00 | 0.00 | 0.00 | 99 | 1013.4 |
| 20260905112454 | 69 | 144 | 0.0 | 1.7 | 0.00 | 0.00 | 0.00 | 99 | 1013.3 |
| 20260905111949 | 69 | 134 | 0.9 | 1.7 | 0.00 | 0.00 | 0.00 | 99 | 1013.3 |
| 20260905111444 | 69 | 159 | 0.0 | 0.0 | 0.00 | 0.00 | 0.00 | 99 | 1013.2 |
| 20260905110943 | 69 | 159 | 0.0 | 0.9 | 0.00 | 0.00 | 0.00 | 99 | 1013.2 |
| 20260905110442 | 69 | 146 | 0.9 | 0.9 | 0.00 | 0.00 | 0.00 | 99 | 1013.2 |
| 20260905105937 | 69 | 119 | 0.0 | 0.9 | 0.00 | 0.00 | 0.00 | 99 | 1013.2 |
| 20260905105432 | 69 | 138 | 0.0 | 0.9 | 0.00 | 0.00 | 0.00 | 99 | 1013.3 |
| 20260905104931 | 69 | 146 | 0.0 | 0.9 | 0.00 | 0.00 | 0.00 | 99 | 1013.0 |
| 20260905104422 | 69 | 130 | 0.9 | 1.7 | 0.00 | 0.00 | 0.00 | 99 | 1013.1 |
| 20260905103922 | 69 | 176 | 0.0 | 1.7 | 0.00 | 0.00 | 0.00 | 99 | 1013.2 |
| 20260905103417 | 69 | 141 | 0.9 | 1.7 | 0.00 | 0.00 | 0.00 | 99 | 1013.1 |
| 20260905102913 | 69 | 139 | 0.9 | 1.7 | 0.00 | 0.00 | 0.00 | 99 | 1013.0 |
| 20260905102409 | 69 | 157 | 0.9 | 1.7 | 0.00 | 0.00 | 0.00 | 99 | 1012.9 |
| 20260905101910 | 70 | 156 | 0.9 | 1.7 | 0.00 | 0.00 | 0.00 | 99 | 1012.8 |
| 20260905101408 | 70 | 159 | 0.0 | 1.7 | 0.00 | 0.00 | 0.00 | 99 | 1013.0 |
| 20260905100903 | 70 | 177 | 0.0 | 0.9 | 0.00 | 0.00 | 0.00 | 99 | 1012.8 |
| 20260905100359 | 70 | 172 | 0.0 | 1.7 | 0.00 | 0.00 | 0.00 | 99 | 1012.6 |
| 20260905095858 | 70 | 143 | 0.0 | 0.0 | 0.00 | 0.00 | 0.00 | 99 | 1012.6 |
| 20260905095352 | 70 | 119 | 0.0 | 0.0 | 0.00 | 0.00 | 0.00 | 99 | 1012.4 |
| 20260905094847 | 70 | 80 | 0.0 | 0.0 | 0.00 | 0.00 | 0.00 | 99 | 1012.7 |
| 20260905094343 | 70 | 80 | 0.0 | 0.0 | 0.00 | 0.00 | 0.00 | 99 | 1012.8 |
| 20260905093841 | 70 | 165 | 0.0 | 0.0 | 0.00 | 0.00 | 0.00 | 99 | 1012.6 |
| 20260905093337 | 70 | 154 | 0.0 | 0.0 | 0.00 | 0.00 | 0.00 | 99 | 1012.6 |
| 20260905092833 | 70 | 77 | 1.7 | 1.7 | 0.00 | 0.00 | 0.00 | 99 | 1012.7 |
| 20260905092333 | 70 | 74 | 0.0 | 0.0 | 0.00 | 0.00 | 0.00 | 99 | 1012.4 |
| 20260905091828 | 70 | 90 | 0.0 | 0.0 | 0.00 | 0.00 | 0.00 | 99 | 1012.5 |
| 20260905091328 | 70 | 134 | 0.9 | 1.7 | 0.00 | 0.00 | 0.00 | 99 | 1012.6 |
| 20260905090826 | 70 | 162 | 0.9 | 1.7 | 0.00 | 0.00 | 0.00 | 99 | 1012.2 |
| 20260905090323 | 70 | 67 | 0.9 | 1.7 | 0.00 | 0.00 | 0.00 | 99 | 1012.3 |
| 20260905085822 | 70 | 132 | 0.9 | 0.9 | 0.00 | 0.00 | 0.00 | 99 | 1012.3 |
| 20260905085316 | 70 | 92 | 0.0 | 0.9 | 0.00 | 0.00 | 0.00 | 99 | 1012.4 |
| 20260905084812 | 70 | 111 | 0.9 | 1.7 | 0.00 | 0.00 | 0.00 | 99 | 1012.4 |
| 20260905084311 | 70 | 96 | 0.0 | 0.9 | 0.00 | 0.00 | 0.00 | 99 | 1012.4 |
| 20260905083806 | 70 | 154 | 0.0 | 0.9 | 0.00 | 0.00 | 0.00 | 99 | 1012.6 |
| 20260905083302 | 71 | 132 | 0.0 | 0.9 | 0.00 | 0.00 | 0.00 | 99 | 1012.5 |
| 20260905082757 | 70 | 119 | 0.0 | 0.9 | 0.00 | 0.00 | 0.00 | 99 | 1012.5 |
| 20260905082254 | 70 | 119 | 0.0 | 0.0 | 0.00 | 0.00 | 0.00 | 99 | 1012.5 |
| 20260905081753 | 70 | 136 | 0.0 | 0.9 | 0.00 | 0.00 | 0.00 | 99 | 1012.7 |
| 20260905081249 | 71 | 172 | 0.0 | 0.0 | 0.00 | 0.00 | 0.00 | 99 | 1012.8 |
| 20260905080743 | 71 | 172 | 0.0 | 0.9 | 0.00 | 0.00 | 0.00 | 99 | 1012.8 |
| 20260905080242 | 71 | 126 | 0.9 | 0.9 | 0.00 | 0.00 | 0.00 | 99 | 1012.7 |
| 20260905075741 | 71 | 167 | 0.9 | 1.7 | 0.00 | 0.00 | 0.00 | 99 | 1012.8 |
| 20260905075241 | 71 | 172 | 0.0 | 1.7 | 0.00 | 0.00 | 0.00 | 99 | 1012.7 |
| 20260905074739 | 71 | 111 | 0.0 | 0.9 | 0.00 | 0.00 | 0.00 | 99 | 1012.8 |
| 20260905074236 | 71 | 113 | 0.9 | 1.7 | 0.00 | 0.00 | 0.00 | 99 | 1013.2 |
| 20260905073731 | 71 | 181 | 1.7 | 1.7 | 0.00 | 0.00 | 0.00 | 99 | 1012.9 |
| 20260905073227 | 71 | 181 | 1.7 | 1.7 | 0.00 | 0.00 | 0.00 | 99 | 1013.1 |
| 20260905072726 | 71 | 226 | 0.0 | 1.7 | 0.00 | 0.00 | 0.00 | 99 | 1013.0 |
| 20260905072221 | 71 | 147 | 0.0 | 0.9 | 0.00 | 0.00 | 0.00 | 99 | 1013.1 |
| 20260905071718 | 71 | 136 | 0.0 | 0.9 | 0.00 | 0.00 | 0.00 | 99 | 1013.2 |
| 20260905071214 | 71 | 119 | 0.0 | 0.9 | 0.00 | 0.00 | 0.00 | 99 | 1013.2 |
| 20260905070708 | 71 | 119 | 0.0 | 0.9 | 0.00 | 0.00 | 0.00 | 99 | 1013.2 |
| 20260905070204 | 71 | 147 | 0.0 | 0.9 | 0.00 | 0.00 | 0.00 | 99 | 1013.1 |
| 20260905065703 | 71 | 124 | 0.0 | 0.9 | 0.00 | 0.00 | 0.00 | 99 | 1013.4 |
| 20260905065157 | 71 | 159 | 0.0 | 0.9 | 0.00 | 0.00 | 0.00 | 99 | 1013.4 |
| 20260905064653 | 71 | 149 | 0.0 | 0.9 | 0.00 | 0.00 | 0.00 | 99 | 1013.3 |
| 20260905064148 | 71 | 128 | 0.0 | 1.7 | 0.00 | 0.00 | 0.00 | 99 | 1013.4 |
| 20260905063647 | 71 | 156 | 0.9 | 0.9 | 0.00 | 0.00 | 0.00 | 99 | 1013.4 |
| 20260905063143 | 71 | 146 | 0.0 | 1.7 | 0.00 | 0.00 | 0.00 | 99 | 1013.6 |
| 20260905062639 | 71 | 98 | 0.0 | 1.7 | 0.00 | 0.00 | 0.00 | 99 | 1013.5 |
| 20260905062138 | 71 | 84 | 0.0 | 0.9 | 0.00 | 0.00 | 0.00 | 99 | 1013.8 |
| 20260905061633 | 71 | 247 | 0.0 | 0.9 | 0.00 | 0.00 | 0.00 | 99 | 1013.3 |
| 20260905061132 | 71 | 159 | 0.0 | 0.0 | 0.00 | 0.00 | 0.00 | 99 | 1013.8 |
| 20260905060628 | 71 | 157 | 0.0 | 0.9 | 0.00 | 0.00 | 0.00 | 99 | 1013.6 |
| 20260905060124 | 71 | 130 | 0.0 | 1.7 | 0.00 | 0.00 | 0.00 | 99 | 1013.7 |
| 20260905055622 | 71 | 159 | 0.9 | 1.7 | 0.00 | 0.00 | 0.00 | 99 | 1014.0 |
| 20260905055118 | 71 | 181 | 0.0 | 1.7 | 0.00 | 0.00 | 0.00 | 99 | 1014.1 |
| 20260905054614 | 71 | 165 | 0.0 | 0.9 | 0.00 | 0.00 | 0.00 | 99 | 1014.0 |
| 20260905054109 | 71 | 156 | 0.0 | 0.9 | 0.00 | 0.00 | 0.00 | 99 | 1014.1 |
| 20260905053609 | 71 | 125 | 0.0 | 0.9 | 0.00 | 0.00 | 0.00 | 99 | 1014.2 |
| 20260905053104 | 71 | 177 | 0.9 | 1.7 | 0.00 | 0.00 | 0.00 | 99 | 1014.6 |
| 20260905052603 | 71 | 180 | 0.0 | 0.9 | 0.00 | 0.00 | 0.00 | 99 | 1014.3 |
| 20260905052058 | 71 | 172 | 0.0 | 1.7 | 0.00 | 0.00 | 0.00 | 99 | 1014.5 |
| 20260905051554 | 71 | 141 | 0.0 | 0.0 | 0.00 | 0.00 | 0.00 | 99 | 1014.5 |
| 20260905051050 | 71 | 172 | 0.0 | 0.9 | 0.00 | 0.00 | 0.00 | 99 | 1014.8 |
| 20260905050546 | 71 | 221 | 0.9 | 1.7 | 0.00 | 0.00 | 0.00 | 99 | 1015.0 |
| 20260905050043 | 71 | 178 | 0.0 | 1.7 | 0.00 | 0.00 | 0.00 | 99 | 1014.7 |
| 20260905045537 | 71 | 149 | 1.7 | 1.7 | 0.00 | 0.00 | 0.00 | 99 | 1015.1 |
| 20260905045033 | 71 | 153 | 0.9 | 0.9 | 0.00 | 0.00 | 0.00 | 99 | 1015.3 |
| 20260905044532 | 71 | 207 | 0.0 | 0.9 | 0.00 | 0.00 | 0.00 | 99 | 1015.1 |
| 20260905044027 | 71 | 119 | 0.0 | 0.9 | 0.00 | 0.00 | 0.00 | 99 | 1015.4 |
| 20260905043526 | 71 | 172 | 0.0 | 0.9 | 0.00 | 0.00 | 0.00 | 99 | 1015.3 |
| 20260905043022 | 71 | 165 | 0.0 | 1.7 | 0.00 | 0.00 | 0.00 | 99 | 1015.0 |
| 20260905042520 | 71 | 146 | 0.9 | 1.7 | 0.00 | 0.00 | 0.00 | 99 | 1015.3 |
| 20260905042016 | 71 | 150 | 0.0 | 1.7 | 0.00 | 0.00 | 0.00 | 99 | 1015.4 |
| 20260905041511 | 71 | 147 | 0.0 | 0.0 | 0.00 | 0.00 | 0.00 | 99 | 1015.3 |
| 20260905041007 | 71 | 260 | 0.0 | 0.0 | 0.00 | 0.00 | 0.00 | 99 | 1015.4 |
| 20260905040506 | 71 | 147 | 0.0 | 0.9 | 0.00 | 0.00 | 0.00 | 99 | 1015.3 |
| 20260905040005 | 71 | 172 | 0.0 | 0.9 | 0.02 | 0.35 | 0.35 | 99 | 1015.3 |
| 20260905035500 | 72 | 147 | 0.0 | 0.9 | 0.02 | 0.35 | 0.35 | 99 | 1015.5 |
| 20260905034957 | 72 | 133 | 0.0 | 0.9 | 0.00 | 0.34 | 0.34 | 99 | 1015.6 |
| 20260905034452 | 72 | 162 | 0.0 | 0.0 | 0.00 | 0.34 | 0.34 | 99 | 1015.4 |
| 20260905033946 | 72 | 196 | 0.0 | 0.0 | 0.00 | 0.34 | 0.34 | 99 | 1015.7 |
| 20260905033445 | 72 | 159 | 0.0 | 1.7 | 0.00 | 0.34 | 0.34 | 99 | 1015.7 |
| 20260905032940 | 72 | 177 | 0.0 | 0.9 | 0.00 | 0.34 | 0.34 | 99 | 1015.5 |
| 20260905032436 | 72 | 80 | 0.0 | 0.0 | 0.00 | 0.34 | 0.34 | 99 | 1015.5 |
| 20260905031930 | 72 | 159 | 0.0 | 0.9 | 0.00 | 0.34 | 0.34 | 99 | 1015.6 |
| 20260905031426 | 72 | 136 | 0.0 | 0.9 | 0.00 | 0.34 | 0.34 | 99 | 1015.5 |
| 20260905030921 | 72 | 188 | 0.0 | 1.7 | 0.00 | 0.34 | 0.34 | 99 | 1015.3 |
| 20260905030417 | 72 | 90 | 0.0 | 0.9 | 0.00 | 0.34 | 0.34 | 99 | 1015.5 |
| 20260905025916 | 72 | 125 | 0.0 | 0.9 | 0.00 | 0.34 | 0.34 | 99 | 1015.0 |
| 20260905025411 | 72 | 196 | 1.7 | 1.7 | 0.00 | 0.34 | 0.34 | 99 | 1015.3 |
| 20260905024908 | 72 | 50 | 1.7 | 1.7 | 0.00 | 0.34 | 0.34 | 99 | 1015.2 |
| 20260905024402 | 72 | 172 | 0.0 | 0.9 | 0.00 | 0.34 | 0.34 | 99 | 1015.3 |
| 20260905023858 | 72 | 217 | 0.0 | 2.6 | 0.00 | 0.34 | 0.34 | 99 | 1015.3 |
| 20260905023353 | 72 | 147 | 0.0 | 0.9 | 0.00 | 0.34 | 0.34 | 99 | 1015.5 |
| 20260905022852 | 72 | 85 | 0.0 | 0.9 | 0.00 | 0.34 | 0.34 | 99 | 1015.6 |
| 20260905022347 | 72 | 105 | 0.9 | 1.7 | 0.00 | 0.34 | 0.34 | 99 | 1015.6 |
| 20260905021847 | 72 | 174 | 0.0 | 1.7 | 0.00 | 0.34 | 0.34 | 99 | 1015.7 |
| 20260905021343 | 72 | 142 | 0.9 | 1.7 | 0.00 | 0.34 | 0.34 | 99 | 1015.7 |
| 20260905020838 | 72 | 82 | 0.9 | 1.7 | 0.00 | 0.34 | 0.34 | 99 | 1015.5 |
| 20260905020333 | 72 | 43 | 1.7 | 1.7 | 0.00 | 0.34 | 0.34 | 99 | 1015.7 |
| 20260905015832 | 72 | 91 | 0.0 | 0.9 | 0.00 | 0.34 | 0.34 | 99 | 1015.8 |
| 20260905015331 | 72 | 67 | 0.0 | 1.7 | 0.00 | 0.34 | 0.34 | 99 | 1015.5 |
| 20260905014831 | 72 | 159 | 0.0 | 1.7 | 0.00 | 0.34 | 0.34 | 99 | 1015.7 |
| 20260905014326 | 72 | 109 | 0.0 | 0.9 | 0.00 | 0.34 | 0.34 | 99 | 1015.5 |
| 20260905013821 | 72 | 119 | 0.0 | 1.7 | 0.00 | 0.34 | 0.34 | 99 | 1015.2 |
| 20260905013318 | 72 | 78 | 0.0 | 0.9 | 0.00 | 0.34 | 0.34 | 99 | 1015.3 |
| 20260905012813 | 72 | 88 | 0.0 | 0.9 | 0.00 | 0.34 | 0.34 | 99 | 1015.0 |
| 20260905012308 | 72 | 41 | 0.0 | 1.7 | 0.00 | 0.34 | 0.34 | 99 | 1015.1 |
| 20260905011805 | 72 | 92 | 0.0 | 1.7 | 0.00 | 0.34 | 0.34 | 99 | 1014.8 |
| 20260905011301 | 72 | 71 | 0.0 | 0.9 | 0.00 | 0.34 | 0.34 | 98 | 1014.8 |
| 20260905010801 | 72 | 116 | 0.0 | 0.9 | 0.00 | 0.34 | 0.34 | 98 | 1014.8 |
| 20260905010255 | 72 | 124 | 0.0 | 0.9 | 0.00 | 0.34 | 0.34 | 98 | 1014.6 |
| 20260905005752 | 73 | 184 | 1.7 | 1.7 | 0.00 | 0.34 | 0.34 | 98 | 1014.5 |
| 20260905005253 | 73 | 184 | 0.0 | 2.6 | 0.00 | 0.34 | 0.34 | 98 | 1014.6 |
| 20260905004752 | 73 | 138 | 0.0 | 1.7 | 0.00 | 0.34 | 0.34 | 98 | 1014.5 |
| 20260905004247 | 73 | 156 | 0.0 | 1.7 | 0.00 | 0.34 | 0.34 | 98 | 1014.4 |
| 20260905003742 | 73 | 148 | 0.0 | 1.7 | 0.00 | 0.34 | 0.34 | 98 | 1014.3 |
| 20260905003238 | 73 | 174 | 0.0 | 1.7 | 0.00 | 0.34 | 0.34 | 98 | 1014.1 |
| 20260905002733 | 73 | 59 | 0.9 | 1.7 | 0.00 | 0.34 | 0.34 | 98 | 1013.8 |
| 20260905002228 | 73 | 198 | 0.9 | 2.6 | 0.00 | 0.34 | 0.34 | 98 | 1014.4 |
| 20260905001723 | 73 | 224 | 1.7 | 2.6 | 0.00 | 0.34 | 0.34 | 98 | 1014.0 |
| 20260905001222 | 73 | 199 | 0.9 | 2.6 | 0.00 | 0.34 | 0.34 | 98 | 1013.9 |
| 20260905000718 | 73 | 236 | 0.9 | 1.7 | 0.00 | 0.34 | 0.34 | 98 | 1013.6 |
| 20260905000213 | 73 | 76 | 0.0 | 0.9 | 0.00 | 0.34 | 0.34 | 98 | 1013.6 |
| 20260904235708 | 73 | 169 | 1.7 | 2.6 | 0.00 | 0.34 | 0.34 | 98 | 1013.8 |
| 20260904235203 | 73 | 204 | 0.9 | 1.7 | 0.00 | 0.34 | 0.34 | 98 | 1014.0 |
| 20260904234657 | 73 | 205 | 0.9 | 1.7 | 0.00 | 0.34 | 0.34 | 98 | 1014.0 |
| 20260904234153 | 73 | 135 | 2.6 | 2.6 | 0.00 | 0.34 | 0.34 | 98 | 1013.9 |
| 20260904233648 | 73 | 169 | 0.9 | 0.9 | 0.00 | 0.34 | 0.34 | 98 | 1013.5 |
| 20260904233144 | 73 | 51 | 0.9 | 1.7 | 0.00 | 0.34 | 0.34 | 97 | 1014.1 |
| 20260904232641 | 73 | 60 | 1.7 | 1.7 | 0.00 | 0.34 | 0.34 | 97 | 1014.6 |
| 20260904232137 | 73 | 42 | 1.7 | 1.7 | 0.00 | 0.34 | 0.34 | 97 | 1014.8 |
| 20260904231632 | 73 | 37 | 0.9 | 1.7 | 0.02 | 0.34 | 0.34 | 97 | 1014.9 |
| 20260904231127 | 73 | 87 | 1.7 | 1.7 | 0.02 | 0.34 | 0.34 | 97 | 1015.5 |
| 20260904230626 | 73 | 78 | 0.9 | 2.6 | 0.00 | 0.34 | 0.34 | 96 | 1015.9 |
| 20260904230122 | 73 | 207 | 1.7 | 4.3 | 0.05 | 0.34 | 0.34 | 95 | 1016.0 |
| 20260904225619 | 73 | 68 | 0.0 | 0.9 | 0.31 | 0.34 | 0.34 | 94 | 1015.3 |
| 20260904225114 | 74 | 44 | 0.9 | 2.6 | 0.31 | 0.33 | 0.33 | 94 | 1015.2 |
| 20260904224609 | 74 | 179 | 0.0 | 2.6 | 0.02 | 0.28 | 0.28 | 95 | 1015.0 |
| 20260904224104 | 74 | 193 | 2.6 | 2.6 | 0.00 | 0.28 | 0.28 | 95 | 1015.2 |
| 20260904223603 | 74 | 121 | 0.9 | 2.6 | 0.00 | 0.28 | 0.28 | 94 | 1015.5 |
| 20260904223059 | 74 | 48 | 0.0 | 2.6 | 0.00 | 0.28 | 0.28 | 94 | 1015.5 |
| 20260904222554 | 74 | 88 | 2.6 | 5.2 | 0.00 | 0.28 | 0.28 | 96 | 1015.8 |
| 20260904222050 | 74 | 228 | 1.7 | 2.6 | 0.00 | 0.28 | 0.28 | 96 | 1016.0 |
| 20260904221549 | 74 | 172 | 2.6 | 3.5 | 0.00 | 0.28 | 0.28 | 96 | 1016.0 |
| 20260904221044 | 74 | 177 | 0.0 | 0.9 | 0.00 | 0.28 | 0.28 | 95 | 1015.8 |
| 20260904220544 | 74 | 186 | 0.9 | 2.6 | 0.00 | 0.28 | 0.28 | 95 | 1016.1 |
| 20260904220040 | 74 | 154 | 1.7 | 2.6 | 0.14 | 0.28 | 0.28 | 94 | 1015.7 |
| 20260904215540 | 74 | 182 | 1.7 | 2.6 | 1.18 | 0.27 | 0.27 | 93 | 1016.0 |
| 20260904215036 | 75 | 279 | 2.6 | 2.6 | 1.28 | 0.22 | 0.22 | 89 | 1015.8 |
| 20260904214531 | 78 | 148 | 0.9 | 4.3 | 0.28 | 0.05 | 0.05 | 81 | 1015.9 |
| 20260904214027 | 79 | 158 | 6.1 | 7.8 | 0.00 | 0.00 | 0.00 | 71 | 1015.4 |
| 20260904213524 | 80 | 178 | 3.5 | 11.3 | 0.00 | 0.00 | 0.00 | 68 | 1014.6 |
| 20260904213022 | 81 | 306 | 4.3 | 20.0 | 0.00 | 0.00 | 0.00 | 67 | 1014.6 |
| 20260904212521 | 83 | 267 | 6.1 | 12.2 | 0.00 | 0.00 | 0.00 | 64 | 1014.2 |
| 20260904212016 | 85 | 280 | 4.3 | 10.4 | 0.00 | 0.00 | 0.00 | 64 | 1014.5 |
| 20260904211516 | 89 | 254 | 7.0 | 13.9 | 0.00 | 0.00 | 0.00 | 61 | 1014.3 |
| 20260904211012 | 92 | 228 | 3.5 | 6.1 | 0.00 | 0.00 | 0.00 | 64 | 1014.3 |
| 20260904210511 | 93 | 237 | 1.7 | 2.6 | 0.00 | 0.00 | 0.00 | 63 | 1013.3 |
| 20260904210007 | 93 | 254 | 0.0 | 0.9 | 0.00 | 0.00 | 0.00 | 61 | 1013.1 |
| 20260904205502 | 93 | 258 | 1.7 | 1.7 | 0.00 | 0.00 | 0.00 | 61 | 1013.5 |
| 20260904204959 | 93 | 253 | 0.0 | 0.0 | 0.00 | 0.00 | 0.00 | 58 | 1013.4 |
| 20260904204454 | 93 | 272 | 0.0 | 0.0 | 0.00 | 0.00 | 0.00 | 58 | 1013.3 |
| 20260904203950 | 93 | 285 | 0.0 | 1.7 | 0.00 | 0.00 | 0.00 | 56 | 1013.1 |
| 20260904203446 | 93 | 312 | 0.0 | 0.9 | 0.00 | 0.00 | 0.00 | 60 | 1013.0 |
| 20260904202942 | 93 | 321 | 0.0 | 1.7 | 0.00 | 0.00 | 0.00 | 60 | 1013.1 |
| 20260904202438 | 92 | 229 | 0.9 | 0.9 | 0.00 | 0.00 | 0.00 | 61 | 1013.0 |
| 20260904201934 | 91 | 323 | 0.0 | 0.0 | 0.00 | 0.00 | 0.00 | 62 | 1012.9 |
| 20260904201429 | 91 | 261 | 0.0 | 0.9 | 0.00 | 0.00 | 0.00 | 62 | 1013.0 |
| 20260904200924 | 92 | 150 | 0.0 | 0.9 | 0.00 | 0.00 | 0.00 | 61 | 1013.0 |
| 20260904200422 | 93 | 171 | 0.0 | 0.0 | 0.00 | 0.00 | 0.00 | 59 | 1013.2 |
| 20260904195918 | 93 | 272 | 0.0 | 0.9 | 0.00 | 0.00 | 0.00 | 57 | 1013.4 |
| 20260904195415 | 93 | 260 | 0.0 | 0.9 | 0.00 | 0.00 | 0.00 | 58 | 1013.5 |
| 20260904194910 | 93 | 247 | 0.0 | 0.9 | 0.00 | 0.00 | 0.00 | 58 | 1013.6 |
| 20260904194410 | 94 | 229 | 0.0 | 0.9 | 0.00 | 0.00 | 0.00 | 56 | 1013.8 |
| 20260904193905 | 95 | 254 | 0.0 | 0.9 | 0.00 | 0.00 | 0.00 | 55 | 1013.8 |
| 20260904193400 | 95 | 230 | 1.7 | 1.7 | 0.00 | 0.00 | 0.00 | 53 | 1013.6 |
| 20260904192855 | 96 | 330 | 1.7 | 1.7 | 0.00 | 0.00 | 0.00 | 50 | 1013.6 |
| 20260904192351 | 98 | 2 | 1.7 | 1.7 | 0.00 | 0.00 | 0.00 | 48 | 1013.7 |
| 20260904191847 | 98 | 239 | 0.9 | 4.3 | 0.00 | 0.00 | 0.00 | 47 | 1013.8 |
| 20260904191344 | 99 | 258 | 2.6 | 3.5 | 0.00 | 0.00 | 0.00 | 48 | 1013.8 |
| 20260904190840 | 98 | 245 | 1.7 | 3.5 | 0.00 | 0.00 | 0.00 | 49 | 1014.1 |
| 20260904190335 | 98 | 305 | 0.9 | 2.6 | 0.00 | 0.00 | 0.00 | 49 | 1013.9 |
| 20260904185832 | 98 | 163 | 3.5 | 3.5 | 0.00 | 0.00 | 0.00 | 49 | 1014.0 |
| 20260904185327 | 98 | 263 | 1.7 | 2.6 | 0.00 | 0.00 | 0.00 | 48 | 1014.3 |
| 20260904184826 | 96 | 262 | 1.7 | 2.6 | 0.00 | 0.00 | 0.00 | 50 | 1014.5 |
| 20260904184321 | 96 | 332 | 1.7 | 1.7 | 0.00 | 0.00 | 0.00 | 51 | 1014.6 |
| 20260904183817 | 96 | 283 | 0.9 | 1.7 | 0.00 | 0.00 | 0.00 | 51 | 1014.6 |
| 20260904183312 | 97 | 128 | 0.9 | 3.5 | 0.00 | 0.00 | 0.00 | 51 | 1014.7 |
| 20260904182807 | 97 | 167 | 0.9 | 2.6 | 0.00 | 0.00 | 0.00 | 50 | 1014.9 |
| 20260904182306 | 97 | 350 | 0.9 | 2.6 | 0.00 | 0.00 | 0.00 | 50 | 1014.8 |
| 20260904181758 | 96 | 244 | 1.7 | 5.2 | 0.00 | 0.00 | 0.00 | 52 | 1014.9 |
| 20260904181257 | 95 | 228 | 2.6 | 4.3 | 0.00 | 0.00 | 0.00 | 52 | 1014.9 |
| 20260904180753 | 95 | 211 | 4.3 | 5.2 | 0.00 | 0.00 | 0.00 | 52 | 1015.0 |
| 20260904180248 | 95 | 271 | 1.7 | 5.2 | 0.00 | 0.00 | 0.00 | 53 | 1015.1 |
| 20260904175747 | 95 | 211 | 3.5 | 4.3 | 0.00 | 0.00 | 0.00 | 53 | 1015.1 |
| 20260904175245 | 95 | 252 | 1.7 | 2.6 | 0.00 | 0.00 | 0.00 | 53 | 1015.2 |
| 20260904174741 | 95 | 199 | 1.7 | 3.5 | 0.00 | 0.00 | 0.00 | 52 | 1015.6 |
| 20260904174237 | 95 | 256 | 2.6 | 7.0 | 0.00 | 0.00 | 0.00 | 52 | 1015.4 |
| 20260904173733 | 95 | 225 | 0.9 | 5.2 | 0.00 | 0.00 | 0.00 | 52 | 1015.6 |
| 20260904173232 | 95 | 178 | 1.7 | 4.3 | 0.00 | 0.00 | 0.00 | 50 | 1015.6 |
| 20260904172729 | 95 | 238 | 2.6 | 4.3 | 0.00 | 0.00 | 0.00 | 50 | 1015.7 |
| 20260904172227 | 95 | 195 | 1.7 | 3.5 | 0.00 | 0.00 | 0.00 | 52 | 1015.8 |
| 20260904171717 | 94 | 298 | 3.5 | 4.3 | 0.00 | 0.00 | 0.00 | 51 | 1015.7 |
| 20260904171212 | 94 | 272 | 0.0 | 3.5 | 0.00 | 0.00 | 0.00 | 53 | 1015.7 |
| 20260904170709 | 94 | 234 | 1.7 | 2.6 | 0.00 | 0.00 | 0.00 | 54 | 1015.5 |
| 20260904170204 | 94 | 123 | 1.7 | 2.6 | 0.00 | 0.00 | 0.00 | 53 | 1015.7 |
| 20260904165703 | 94 | 230 | 2.6 | 2.6 | 0.00 | 0.00 | 0.00 | 53 | 1015.8 |
| 20260904165203 | 94 | 222 | 2.6 | 3.5 | 0.00 | 0.00 | 0.00 | 54 | 1015.7 |
| 20260904164657 | 93 | 129 | 1.7 | 2.6 | 0.00 | 0.00 | 0.00 | 54 | 1015.8 |
| 20260904164152 | 93 | 295 | 0.0 | 1.7 | 0.00 | 0.00 | 0.00 | 56 | 1015.6 |
| 20260904163649 | 93 | 210 | 2.6 | 3.5 | 0.00 | 0.00 | 0.00 | 53 | 1015.7 |
| 20260904163144 | 92 | 265 | 0.0 | 2.6 | 0.00 | 0.00 | 0.00 | 56 | 1015.7 |
| 20260904162643 | 92 | 169 | 1.7 | 3.5 | 0.00 | 0.00 | 0.00 | 56 | 1015.9 |
| 20260904162138 | 92 | 196 | 2.6 | 4.3 | 0.00 | 0.00 | 0.00 | 55 | 1015.9 |
| 20260904161633 | 92 | 255 | 0.9 | 3.5 | 0.00 | 0.00 | 0.00 | 55 | 1016.0 |
| 20260904161128 | 93 | 237 | 0.0 | 2.6 | 0.00 | 0.00 | 0.00 | 58 | 1015.8 |
| 20260904160624 | 92 | 254 | 0.0 | 2.6 | 0.00 | 0.00 | 0.00 | 57 | 1016.1 |
| 20260904160119 | 92 | 247 | 2.6 | 5.2 | 0.00 | 0.00 | 0.00 | 56 | 1016.2 |
| 20260904155614 | 92 | 201 | 1.7 | 2.6 | 0.00 | 0.00 | 0.00 | 58 | 1016.3 |
| 20260904155108 | 92 | 178 | 3.5 | 5.2 | 0.00 | 0.00 | 0.00 | 58 | 1016.3 |